Location: Ahstedt
(52.2048°N, 10.1060°E)
Time: 00:41:23
(UTC+00:00)

USA 234 - Pass Details

Date: 18 January 2026
Orbit: 1102 x 1106 km, 123.0° (Epoch: 4 January)

Event Time Altitude Azimuth Distance (km) Brightness Sun altitude
Rises 06:27:09 0° 59° (ENE) 3,934 6.7 -7.8°
Reaches altitude 10° 06:29:46 10° 65° (ENE) 2,973 6.2 -7.4°
Maximum altitude 06:36:05 48° 139° (SE) 1,409 4.4 -6.5°
Drops below altitude 10° 06:42:23 10° 212° (SSW) 2,959 5.5 -5.7°
Sets 06:44:57 0° 218° (SW) 3,914 6.0 -5.3°
